When you browse on this site, cookies collect data to enhance your experience and personalize the content and advertising you see.
Visit our Privacy Policy to learn more. By continuing to use the site, you agree to this use of cookies and data.
  • In Österreich
  • Länderverzeichnis
  • Für 7 Tage
  • Wassertemperatur
  • Satellitenkarten
  • Wetterkarte
  • News
  • Widgets
  • user-avatar
    Anmelden

    Stündliche Wetter Andora

    Heute, 19 April, Freitag

    Zeit Temperatur Niederschläge Wind Luftdruck Luftfeuchtigkeit
    00:00 +6°C° 0 mm 2 m/S 624 mmHg 59%
    01:00 +5°C° 0.1 mm 2 m/S 624 mmHg 60%
    02:00 +5°C° 0.1 mm 2 m/S 624 mmHg 61%
    03:00 +4°C° 0.1 mm 2 m/S 623 mmHg 62%
    04:00 +5°C° 0.1 mm 2 m/S 624 mmHg 61%
    05:00 +5°C° 0.1 mm 2 m/S 624 mmHg 60%
    06:00 +5°C° 0.1 mm 2 m/S 625 mmHg 59%
    07:00 +7°C° 0.2 mm 2 m/S 625 mmHg 55%
    08:00 +9°C° 0.2 mm 2 m/S 626 mmHg 52%
    09:00 +10°C° 0.2 mm 2 m/S 627 mmHg 49%
    10:00 +12°C° 0.1 mm 2 m/S 628 mmHg 46%
    11:00 +14°C° 0.1 mm 2 m/S 629 mmHg 44%
    12:00 +15°C° 0.1 mm 2 m/S 629 mmHg 41%
    13:00 +15°C° 0.1 mm 2 m/S 629 mmHg 42%
    14:00 +15°C° 0.1 mm 1 m/S 630 mmHg 43%
    15:00 +16°C° 0.1 mm 1 m/S 630 mmHg 44%
    16:00 +14°C° 0 mm 1 m/S 629 mmHg 49%
    17:00 +13°C° 0 mm 1 m/S 629 mmHg 55%
    18:00 +11°C° 0 mm 1 m/S 629 mmHg 60%
    19:00 +10°C° 0 mm 1 m/S 628 mmHg 64%
    20:00 +9°C° 0 mm 1 m/S 628 mmHg 67%
    21:00 +7°C° 0 mm 1 m/S 628 mmHg 70%
    22:00 +7°C° 0 mm 1 m/S 628 mmHg 69%
    23:00 +7°C° 0 mm 1 m/S 628 mmHg 68%

    Morgen, 20 April, Samstag

    Zeit Temperatur Niederschläge Wind Luftdruck Luftfeuchtigkeit
    00:00 +6°C° 0 mm 1 m/S 627 mmHg 67%
    01:00 +6°C° 0 mm 1 m/S 627 mmHg 67%
    02:00 +5°C° 0 mm 1 m/S 626 mmHg 67%
    03:00 +5°C° 0 mm 1 m/S 626 mmHg 67%
    04:00 +5°C° 0 mm 1 m/S 626 mmHg 65%
    05:00 +6°C° 0 mm 1 m/S 626 mmHg 64%
    06:00 +6°C° 0 mm 1 m/S 626 mmHg 62%
    07:00 +8°C° 0 mm 1 m/S 627 mmHg 55%
    08:00 +11°C° 0 mm 1 m/S 628 mmHg 47%
    09:00 +13°C° 0 mm 1 m/S 629 mmHg 40%
    10:00 +14°C° 0 mm 1 m/S 629 mmHg 39%
    11:00 +15°C° 0 mm 2 m/S 629 mmHg 38%
    12:00 +16°C° 0 mm 2 m/S 629 mmHg 37%
    13:00 +14°C° 0.3 mm 2 m/S 628 mmHg 44%
    14:00 +13°C° 0.3 mm 2 m/S 628 mmHg 52%
    15:00 +12°C° 0.3 mm 2 m/S 627 mmHg 59%
    16:00 +10°C° 1.1 mm 1 m/S 626 mmHg 66%
    17:00 +9°C° 1.1 mm 1 m/S 626 mmHg 73%
    18:00 +8°C° 1.1 mm 1 m/S 625 mmHg 80%
    19:00 +7°C° 1.6 mm 1 m/S 625 mmHg 83%
    20:00 +5°C° 1.6 mm 2 m/S 625 mmHg 86%
    21:00 +5°C° 1.6 mm 2 m/S 625 mmHg 89%
    22:00 +4°C° 1.5 mm 2 m/S 625 mmHg 89%
    23:00 +5°C° 1.5 mm 1 m/S 624 mmHg 90%

    übermorgen, 21 April, Sonntag

    Zeit Temperatur Niederschläge Wind Luftdruck Luftfeuchtigkeit
    00:00 +5°C° 1.5 mm 1 m/S 624 mmHg 90%
    01:00 +5°C° 0.5 mm 1 m/S 623 mmHg 90%
    02:00 +5°C° 0.5 mm 1 m/S 623 mmHg 90%
    03:00 +4°C° 0.5 mm 1 m/S 623 mmHg 90%
    04:00 +4°C° 0.2 mm 1 m/S 622 mmHg 90%
    05:00 +4°C° 0.2 mm 1 m/S 622 mmHg 90%
    06:00 +4°C° 0.2 mm 1 m/S 622 mmHg 90%
    07:00 +5°C° 0 mm 1 m/S 622 mmHg 85%
    08:00 +6°C° 0 mm 2 m/S 623 mmHg 80%
    09:00 +7°C° 0 mm 2 m/S 623 mmHg 74%
    10:00 +8°C° 0 mm 2 m/S 623 mmHg 71%
    11:00 +9°C° 0 mm 2 m/S 623 mmHg 67%
    12:00 +10°C° 0 mm 2 m/S 623 mmHg 63%
    13:00 +10°C° 0.1 mm 2 m/S 623 mmHg 64%
    14:00 +9°C° 0.1 mm 2 m/S 622 mmHg 64%
    15:00 +9°C° 0.1 mm 2 m/S 622 mmHg 65%
    16:00 +9°C° 0 mm 1 m/S 621 mmHg 69%
    17:00 +9°C° 0 mm 1 m/S 621 mmHg 73%
    18:00 +8°C° 0 mm 1 m/S 620 mmHg 76%
    19:00 +7°C° 0 mm 1 m/S 620 mmHg 80%
    20:00 +6°C° 0 mm 1 m/S 620 mmHg 83%
    21:00 +5°C° 0 mm 1 m/S 619 mmHg 87%
    22:00 +5°C° 0.1 mm 1 m/S 619 mmHg 87%
    23:00 +5°C° 0.1 mm 1 m/S 618 mmHg 87%

    22 April, Montag

    Zeit Temperatur Niederschläge Wind Luftdruck Luftfeuchtigkeit
    00:00 +5°C° 0.1 mm 1 m/S 618 mmHg 88%
    01:00 +4°C° 0 mm 1 m/S 617 mmHg 89%
    02:00 +4°C° 0 mm 1 m/S 616 mmHg 90%
    03:00 +3°C° 0 mm 1 m/S 615 mmHg 91%
    04:00 +4°C° 0.1 mm 1 m/S 615 mmHg 90%
    05:00 +4°C° 0.1 mm 1 m/S 615 mmHg 89%
    06:00 +5°C° 0.1 mm 1 m/S 615 mmHg 88%
    07:00 +5°C° 0.6 mm 1 m/S 615 mmHg 87%
    08:00 +6°C° 0.6 mm 1 m/S 615 mmHg 86%
    09:00 +6°C° 0.6 mm 1 m/S 615 mmHg 85%
    10:00 +7°C° 0.4 mm 1 m/S 615 mmHg 82%
    11:00 +8°C° 0.4 mm 1 m/S 615 mmHg 79%
    12:00 +9°C° 0.4 mm 1 m/S 615 mmHg 76%
    13:00 +9°C° 0.4 mm 1 m/S 614 mmHg 77%
    14:00 +9°C° 0.4 mm 1 m/S 614 mmHg 78%
    15:00 +8°C° 0.4 mm 1 m/S 613 mmHg 79%
    16:00 +8°C° 0.5 mm 1 m/S 613 mmHg 82%
    17:00 +7°C° 0.5 mm 1 m/S 613 mmHg 86%
    18:00 +7°C° 0.5 mm 1 m/S 612 mmHg 90%
    19:00 +6°C° 0.5 mm 1 m/S 612 mmHg 92%
    20:00 +6°C° 0.5 mm 1 m/S 612 mmHg 94%
    21:00 +5°C° 0.5 mm 1 m/S 612 mmHg 96%
    22:00 +5°C° 0.3 mm 1 m/S 612 mmHg 96%
    23:00 +5°C° 0.3 mm 1 m/S 612 mmHg 96%

    23 April, Dienstag

    Zeit Temperatur Niederschläge Wind Luftdruck Luftfeuchtigkeit
    00:00 +5°C° 0.3 mm 1 m/S 611 mmHg 96%
    01:00 +5°C° 0.1 mm 1 m/S 611 mmHg 95%
    02:00 +3°C° 0.1 mm 2 m/S 611 mmHg 95%
    03:00 +3°C° 0.1 mm 2 m/S 610 mmHg 94%
    04:00 +3°C° 0 mm 2 m/S 610 mmHg 93%
    05:00 +3°C° 0 mm 2 m/S 610 mmHg 91%
    06:00 +3°C° 0 mm 2 m/S 610 mmHg 90%
    07:00 +5°C° 0 mm 2 m/S 611 mmHg 85%
    08:00 +7°C° 0 mm 2 m/S 612 mmHg 80%
    09:00 +8°C° 0 mm 3 m/S 613 mmHg 75%
    10:00 +9°C° 0.1 mm 3 m/S 613 mmHg 73%
    11:00 +9°C° 0.1 mm 3 m/S 613 mmHg 72%
    12:00 +10°C° 0.1 mm 3 m/S 613 mmHg 70%
    13:00 +9°C° 0.4 mm 3 m/S 613 mmHg 75%
    14:00 +8°C° 0.4 mm 3 m/S 612 mmHg 80%
    15:00 +7°C° 0.4 mm 3 m/S 612 mmHg 85%
    16:00 +7°C° 0.2 mm 3 m/S 612 mmHg 86%
    17:00 +5°C° 0.2 mm 3 m/S 612 mmHg 87%
    18:00 +5°C° 0.2 mm 3 m/S 612 mmHg 88%
    19:00 +4°C° 0.2 mm 3 m/S 613 mmHg 90%
    20:00 +5°C° 0.2 mm 2 m/S 613 mmHg 92%
    21:00 +5°C° 0.2 mm 2 m/S 614 mmHg 94%
    22:00 +4°C° 0 mm 2 m/S 614 mmHg 92%
    23:00 +3°C° 0 mm 2 m/S 614 mmHg 90%

    24 April, Mittwoch

    Zeit Temperatur Niederschläge Wind Luftdruck Luftfeuchtigkeit
    00:00 +2°C° 0 mm 2 m/S 614 mmHg 88%
    01:00 +3°C° 0.2 mm 2 m/S 614 mmHg 88%
    02:00 +3°C° 0.2 mm 2 m/S 614 mmHg 87%
    03:00 +3°C° 0.2 mm 2 m/S 614 mmHg 87%
    04:00 +3°C° 1 mm 2 m/S 615 mmHg 89%
    05:00 +3°C° 1 mm 2 m/S 615 mmHg 91%
    06:00 +3°C° 1 mm 3 m/S 615 mmHg 94%
    07:00 +3°C° 1.8 mm 2 m/S 616 mmHg 94%
    08:00 +3°C° 1.8 mm 2 m/S 616 mmHg 94%
    09:00 +3°C° 1.8 mm 2 m/S 616 mmHg 94%
    10:00 +3°C° 2.3 mm 2 m/S 616 mmHg 93%
    11:00 +3°C° 2.3 mm 2 m/S 616 mmHg 93%
    12:00 +3°C° 2.3 mm 2 m/S 616 mmHg 93%
    13:00 +3°C° 1.5 mm 2 m/S 616 mmHg 94%
    14:00 +4°C° 1.5 mm 2 m/S 616 mmHg 94%
    15:00 +4°C° 1.5 mm 2 m/S 616 mmHg 94%
    16:00 +3°C° 1.4 mm 2 m/S 616 mmHg 95%
    17:00 +4°C° 1.4 mm 1 m/S 616 mmHg 96%
    18:00 +4°C° 1.4 mm 1 m/S 616 mmHg 97%
    19:00 +4°C° 1.6 mm 1 m/S 616 mmHg 96%
    20:00 +4°C° 1.6 mm 1 m/S 616 mmHg 96%
    21:00 +3°C° 1.6 mm 1 m/S 616 mmHg 96%
    22:00 +2°C° 0.3 mm 1 m/S 616 mmHg 93%
    23:00 +1°C° 0.3 mm 1 m/S 615 mmHg 91%
    Mehr zeigen